Time,TemperatureF,DewpointF,PressureIn,WindDirection,WindDirectionDegrees,WindSpeedMPH,WindSpeedGustMPH,Humidity,HourlyPrecipIn,Conditions,Clouds,dailyrainin,SoftwareType,DateUTC
2014-01-05 00:09:00,35.3,28.0,30.28,SE,140,0.0,0.0,74,0.00,,,0.00,weatherlink.com 1.10,2014-01-05 05:09:00,
2014-01-05 00:24:00,35.2,28.0,30.27,SE,140,0.0,0.0,75,0.00,,,0.00,weatherlink.com 1.10,2014-01-05 05:24:00,
2014-01-05 00:39:00,35.0,28.0,30.26,SE,140,0.0,0.0,75,0.00,,,0.00,weatherlink.com 1.10,2014-01-05 05:39:00,
2014-01-05 00:54:00,34.8,27.0,30.27,SE,140,0.0,0.0,74,0.00,,,0.00,weatherlink.com 1.10,2014-01-05 05:54:00,
2014-01-05 01:09:00,35.0,28.0,30.27,SE,140,0.0,2.0,76,0.00,,,0.00,weatherlink.com 1.10,2014-01-05 06:09:00,
2014-01-05 01:24:00,35.2,28.0,30.27,SE,140,0.0,0.0,74,0.00,,,0.00,weatherlink.com 1.10,2014-01-05 06:24:00,
2014-01-05 01:39:00,35.6,28.0,30.27,SE,140,0.0,1.0,73,0.00,,,0.00,weatherlink.com 1.10,2014-01-05 06:39:00,
2014-01-05 01:54:00,35.6,28.0,30.27,SE,140,0.0,0.0,75,0.00,,,0.00,weatherlink.com 1.10,2014-01-05 06:54:00,
2014-01-05 02:09:00,35.6,29.0,30.26,SE,140,0.0,0.0,76,0.00,,,0.00,weatherlink.com 1.10,2014-01-05 07:09:00,
2014-01-05 02:24:00,35.5,29.0,30.25,SE,140,0.0,0.0,76,0.00,,,0.00,weatherlink.com 1.10,2014-01-05 07:24:00,
2014-01-05 02:39:00,35.2,29.0,30.25,SE,140,0.0,0.0,77,0.00,,,0.00,weatherlink.com 1.10,2014-01-05 07:39:00,
2014-01-05 02:54:00,34.9,29.0,30.25,SE,140,0.0,0.0,79,0.00,,,0.00,weatherlink.com 1.10,2014-01-05 07:54:00,
2014-01-05 03:09:00,34.8,29.0,30.25,SE,140,0.0,0.0,78,0.00,,,0.00,weatherlink.com 1.10,2014-01-05 08:09:00,
2014-01-05 03:24:00,35.1,29.0,30.24,SE,140,1.0,1.0,79,0.00,,,0.00,weatherlink.com 1.10,2014-01-05 08:24:00,
2014-01-05 03:39:00,35.4,29.0,30.24,SE,140,0.0,0.0,77,0.00,,,0.00,weatherlink.com 1.10,2014-01-05 08:39:00,
2014-01-05 03:54:00,35.5,29.0,30.24,SE,140,0.0,1.0,77,0.00,,,0.00,weatherlink.com 1.10,2014-01-05 08:54:00,
2014-01-05 04:09:00,36.0,29.0,30.25,SE,140,0.0,2.0,76,0.00,,,0.00,weatherlink.com 1.10,2014-01-05 09:09:00,
2014-01-05 04:24:00,36.0,29.0,30.23,SE,140,0.0,1.0,75,0.00,,,0.00,weatherlink.com 1.10,2014-01-05 09:24:00,
2014-01-05 04:39:00,36.4,29.0,30.22,SE,140,0.0,0.0,75,0.00,,,0.00,weatherlink.com 1.10,2014-01-05 09:39:00,
2014-01-05 04:54:00,36.5,29.0,30.22,SE,140,0.0,0.0,74,0.00,,,0.00,weatherlink.com 1.10,2014-01-05 09:54:00,
2014-01-05 05:09:00,36.6,29.0,30.22,SE,140,0.0,1.0,74,0.00,,,0.00,weatherlink.com 1.10,2014-01-05 10:09:00,
2014-01-05 05:24:00,36.6,29.0,30.22,SE,140,0.0,2.0,73,0.00,,,0.00,weatherlink.com 1.10,2014-01-05 10:24:00,
2014-01-05 05:39:00,36.8,29.0,30.21,SE,140,0.0,0.0,73,0.00,,,0.00,weatherlink.com 1.10,2014-01-05 10:39:00,
2014-01-05 05:54:00,36.9,29.0,30.21,SE,140,0.0,0.0,74,0.00,,,0.00,weatherlink.com 1.10,2014-01-05 10:54:00,
2014-01-05 06:09:00,36.9,29.0,30.21,SE,140,0.0,0.0,73,0.00,,,0.00,weatherlink.com 1.10,2014-01-05 11:09:00,
2014-01-05 06:24:00,36.8,29.0,30.21,SE,140,0.0,0.0,74,0.00,,,0.00,weatherlink.com 1.10,2014-01-05 11:24:00,
2014-01-05 06:39:00,36.9,29.0,30.20,SE,140,0.0,1.0,74,0.00,,,0.00,weatherlink.com 1.10,2014-01-05 11:39:00,
2014-01-05 06:54:00,37.0,29.0,30.21,SE,140,0.0,0.0,73,0.00,,,0.00,weatherlink.com 1.10,2014-01-05 11:54:00,
2014-01-05 07:09:00,36.9,29.0,30.20,SE,140,0.0,0.0,73,0.00,,,0.00,weatherlink.com 1.10,2014-01-05 12:09:00,
2014-01-05 07:24:00,37.0,30.0,30.20,SE,140,0.0,0.0,75,0.00,,,0.00,weatherlink.com 1.10,2014-01-05 12:24:00,
2014-01-05 07:39:00,37.3,30.0,30.20,SE,140,1.0,2.0,75,0.00,,,0.00,weatherlink.com 1.10,2014-01-05 12:39:00,
2014-01-05 07:54:00,37.2,30.0,30.19,South,180,0.0,4.0,74,0.00,,,0.00,weatherlink.com 1.10,2014-01-05 12:54:00,
2014-01-05 08:09:00,37.4,29.0,30.19,South,175,0.0,1.0,73,0.00,,,0.00,weatherlink.com 1.10,2014-01-05 13:09:00,
2014-01-05 08:24:00,38.0,30.0,30.20,South,175,0.0,3.0,73,0.00,,,0.00,weatherlink.com 1.10,2014-01-05 13:24:00,
2014-01-05 08:39:00,38.7,30.0,30.20,SW,214,2.0,2.0,72,0.00,,,0.00,weatherlink.com 1.10,2014-01-05 13:39:00,
2014-01-05 08:54:00,39.4,31.0,30.19,SE,142,2.0,3.0,72,0.00,,,0.00,weatherlink.com 1.10,2014-01-05 13:54:00,
2014-01-05 09:09:00,40.0,32.0,30.18,SE,126,1.0,4.0,72,0.00,,,0.00,weatherlink.com 1.10,2014-01-05 14:09:00,
2014-01-05 09:24:00,40.3,33.0,30.17,ESE,116,3.0,5.0,74,0.00,,,0.00,weatherlink.com 1.10,2014-01-05 14:24:00,
2014-01-05 09:39:00,41.0,34.0,30.17,ESE,117,2.0,5.0,76,0.00,,,0.00,weatherlink.com 1.10,2014-01-05 14:39:00,
2014-01-05 09:55:00,41.8,35.0,30.16,ESE,117,3.0,7.0,76,0.00,,,0.00,weatherlink.com 1.10,2014-01-05 14:55:00,
2014-01-05 10:10:00,42.6,36.0,30.15,ESE,103,1.0,5.0,78,0.00,,,0.00,weatherlink.com 1.10,2014-01-05 15:10:00,
2014-01-05 10:25:00,44.1,38.0,30.14,ESE,113,0.0,8.0,80,0.00,,,0.00,weatherlink.com 1.10,2014-01-05 15:25:00,
2014-01-05 10:40:00,45.6,40.0,30.13,ESE,111,0.0,5.0,80,0.00,,,0.00,weatherlink.com 1.10,2014-01-05 15:40:00,
2014-01-05 10:55:00,47.1,42.0,30.13,ESE,113,0.0,4.0,81,0.00,,,0.00,weatherlink.com 1.10,2014-01-05 15:55:00,
2014-01-05 11:10:00,47.8,43.0,30.14,ESE,119,3.0,4.0,83,0.00,,,0.00,weatherlink.com 1.10,2014-01-05 16:10:00,
2014-01-05 11:25:00,47.4,44.0,30.12,WSW,238,0.0,5.0,87,0.00,,,0.00,weatherlink.com 1.10,2014-01-05 16:25:00,
2014-01-05 11:40:00,47.6,44.0,30.11,SW,236,0.0,0.0,88,0.00,,,0.00,weatherlink.com 1.10,2014-01-05 16:40:00,
2014-01-05 11:55:00,47.7,45.0,30.11,WSW,237,0.0,0.0,89,0.00,,,0.00,weatherlink.com 1.10,2014-01-05 16:55:00,
2014-01-05 12:10:00,47.6,45.0,30.09,WSW,237,0.0,1.0,89,0.00,,,0.00,weatherlink.com 1.10,2014-01-05 17:10:00,
2014-01-05 12:25:00,47.6,45.0,30.07,SW,215,2.0,3.0,91,0.00,,,0.00,weatherlink.com 1.10,2014-01-05 17:25:00,
2014-01-05 12:40:00,48.5,47.0,30.05,SSW,202,0.0,4.0,93,0.00,,,0.00,weatherlink.com 1.10,2014-01-05 17:40:00,
2014-01-05 12:55:00,50.6,49.0,30.04,SE,144,1.0,5.0,95,0.00,,,0.00,weatherlink.com 1.10,2014-01-05 17:55:00,
2014-01-05 13:10:00,51.9,51.0,30.03,SE,128,1.0,4.0,95,0.00,,,0.00,weatherlink.com 1.10,2014-01-05 18:10:00,
2014-01-05 13:25:00,53.0,52.0,30.02,SE,132,0.0,4.0,95,0.00,,,0.00,weatherlink.com 1.10,2014-01-05 18:25:00,
2014-01-05 13:40:00,53.4,52.0,30.01,SE,131,2.0,6.0,94,0.00,,,0.00,weatherlink.com 1.10,2014-01-05 18:40:00,
2014-01-05 13:55:00,53.6,52.0,30.00,SE,133,0.0,4.0,94,0.00,,,0.00,weatherlink.com 1.10,2014-01-05 18:55:00,
2014-01-05 14:10:00,54.0,52.0,29.99,SE,132,0.0,4.0,94,0.00,,,0.00,weatherlink.com 1.10,2014-01-05 19:10:00,
2014-01-05 14:25:00,54.8,53.0,29.98,SE,134,2.0,5.0,94,0.00,,,0.00,weatherlink.com 1.10,2014-01-05 19:25:00,
2014-01-05 14:41:00,55.7,54.0,29.98,SSE,149,4.0,7.0,93,0.00,,,0.00,weatherlink.com 1.10,2014-01-05 19:41:00,
2014-01-05 14:56:00,56.0,54.0,29.97,SE,140,2.0,8.0,93,0.00,,,0.00,weatherlink.com 1.10,2014-01-05 19:56:00,
2014-01-05 15:11:00,56.3,54.0,29.96,SE,138,0.0,4.0,92,0.00,,,0.00,weatherlink.com 1.10,2014-01-05 20:11:00,
2014-01-05 15:26:00,56.2,54.0,29.96,SE,134,2.0,5.0,93,0.00,,,0.00,weatherlink.com 1.10,2014-01-05 20:26:00,
2014-01-05 15:41:00,56.1,54.0,29.96,SE,134,0.0,3.0,93,0.00,,,0.00,weatherlink.com 1.10,2014-01-05 20:41:00,
2014-01-05 15:56:00,56.2,54.0,29.95,SE,135,1.0,5.0,93,0.00,,,0.00,weatherlink.com 1.10,2014-01-05 20:56:00,
2014-01-05 16:11:00,56.3,54.0,29.95,SE,137,0.0,6.0,93,0.00,,,0.00,weatherlink.com 1.10,2014-01-05 21:11:00,
2014-01-05 16:26:00,56.0,54.0,29.94,SE,137,0.0,2.0,93,0.00,,,0.00,weatherlink.com 1.10,2014-01-05 21:26:00,
2014-01-05 16:41:00,55.9,54.0,29.93,SE,137,0.0,4.0,93,0.00,,,0.00,weatherlink.com 1.10,2014-01-05 21:41:00,
2014-01-05 16:56:00,56.1,54.0,29.93,ESE,117,2.0,6.0,93,0.00,,,0.00,weatherlink.com 1.10,2014-01-05 21:56:00,
2014-01-05 17:11:00,55.9,54.0,29.92,SE,127,0.0,4.0,93,0.00,,,0.00,weatherlink.com 1.10,2014-01-05 22:11:00,
2014-01-05 17:26:00,55.7,54.0,29.92,SE,127,0.0,4.0,93,0.00,,,0.00,weatherlink.com 1.10,2014-01-05 22:26:00,
2014-01-05 17:41:00,55.3,53.0,29.92,SE,126,0.0,3.0,93,0.00,,,0.00,weatherlink.com 1.10,2014-01-05 22:41:00,
2014-01-05 17:56:00,55.3,54.0,29.91,SE,127,2.0,4.0,94,0.00,,,0.00,weatherlink.com 1.10,2014-01-05 22:56:00,
2014-01-05 18:11:00,55.4,54.0,29.90,SE,126,0.0,4.0,94,0.00,,,0.00,weatherlink.com 1.10,2014-01-05 23:11:00,
2014-01-05 18:26:00,55.2,54.0,29.90,SE,133,0.0,2.0,94,0.00,,,0.00,weatherlink.com 1.10,2014-01-05 23:26:00,
2014-01-05 18:41:00,54.9,53.0,29.90,SE,133,0.0,0.0,94,0.00,,,0.00,weatherlink.com 1.10,2014-01-05 23:41:00,
2014-01-05 18:56:00,55.3,54.0,29.88,SE,130,1.0,5.0,95,0.00,,,0.00,weatherlink.com 1.10,2014-01-05 23:56:00,
2014-01-05 19:11:00,55.9,55.0,29.89,SE,131,0.0,5.0,95,0.00,,,0.00,weatherlink.com 1.10,2014-01-06 00:11:00,
2014-01-05 19:26:00,55.8,54.0,29.88,SE,131,0.0,3.0,95,0.00,,,0.00,weatherlink.com 1.10,2014-01-06 00:26:00,
2014-01-05 19:41:00,56.1,55.0,29.88,SE,132,0.0,2.0,96,0.00,,,0.00,weatherlink.com 1.10,2014-01-06 00:41:00,
2014-01-05 19:56:00,56.4,55.0,29.87,SE,132,4.0,4.0,96,0.00,,,0.00,weatherlink.com 1.10,2014-01-06 00:56:00,
2014-01-05 20:11:00,56.6,56.0,29.87,SE,130,0.0,3.0,96,0.00,,,0.00,weatherlink.com 1.10,2014-01-06 01:11:00,
2014-01-05 20:26:00,56.9,56.0,29.87,SE,134,1.0,3.0,96,0.00,,,0.00,weatherlink.com 1.10,2014-01-06 01:26:00,
2014-01-05 20:41:00,57.0,56.0,29.88,SE,144,3.0,3.0,96,0.00,,,0.00,weatherlink.com 1.10,2014-01-06 01:41:00,
2014-01-05 20:56:00,55.9,54.0,29.88,SSW,196,3.0,8.0,94,0.00,,,0.00,weatherlink.com 1.10,2014-01-06 01:56:00,
2014-01-05 21:11:00,55.1,53.0,29.87,West,265,0.0,7.0,93,0.00,,,0.00,weatherlink.com 1.10,2014-01-06 02:11:00,
2014-01-05 21:26:00,54.6,53.0,29.87,South,182,0.0,4.0,94,0.00,,,0.00,weatherlink.com 1.10,2014-01-06 02:26:00,
2014-01-05 21:41:00,54.3,53.0,29.86,SW,217,0.0,6.0,94,0.01,,,0.01,weatherlink.com 1.10,2014-01-06 02:41:00,
2014-01-05 21:56:00,54.1,53.0,29.85,WSW,250,0.0,7.0,95,0.01,,,0.01,weatherlink.com 1.10,2014-01-06 02:56:00,
2014-01-05 22:11:00,53.9,53.0,29.84,ESE,119,0.0,6.0,95,0.01,,,0.01,weatherlink.com 1.10,2014-01-06 03:11:00,
2014-01-05 22:26:00,54.0,53.0,29.83,South,169,0.0,3.0,95,0.01,,,0.01,weatherlink.com 1.10,2014-01-06 03:26:00,
2014-01-05 22:41:00,54.3,53.0,29.82,SE,146,0.0,6.0,95,0.00,,,0.01,weatherlink.com 1.10,2014-01-06 03:41:00,
2014-01-05 22:56:00,54.4,53.0,29.80,SE,135,2.0,5.0,95,0.00,,,0.01,weatherlink.com 1.10,2014-01-06 03:56:00,
2014-01-05 23:11:00,54.5,53.0,29.78,SE,136,1.0,7.0,96,0.00,,,0.01,weatherlink.com 1.10,2014-01-06 04:11:00,
2014-01-05 23:26:00,55.0,54.0,29.77,ESE,122,3.0,9.0,96,0.00,,,0.01,weatherlink.com 1.10,2014-01-06 04:26:00,
2014-01-05 23:41:00,55.5,55.0,29.75,SE,138,2.0,7.0,97,0.00,,,0.01,weatherlink.com 1.10,2014-01-06 04:41:00,
2014-01-05 23:57:00,55.8,55.0,29.73,SE,138,4.0,7.0,97,0.00,,,0.01,weatherlink.com 1.10,2014-01-06 04:57:00,